Time,TemperatureF,DewpointF,PressureIn,WindDirection,WindDirectionDegrees,WindSpeedMPH,WindSpeedGustMPH,Humidity,HourlyPrecipIn,Conditions,Clouds,dailyrainin,SolarRadiationWatts/m^2,SoftwareType,DateUTC
2013-04-11 00:00:00,66.5,59.8,25.92,SE,145,0.0,0.0,79,0.00,,,0.00,0,Wunderground v.1.15,2013-04-11 06:00:00,
2013-04-11 00:05:00,66.3,59.6,25.92,SE,145,0.0,0.0,79,0.00,,,0.00,0,Wunderground v.1.15,2013-04-11 06:05:00,
2013-04-11 00:15:00,66.0,59.7,25.92,SE,146,0.0,0.0,80,0.00,,,0.00,0,Wunderground v.1.15,2013-04-11 06:15:00,
2013-04-11 00:20:00,66.0,59.7,25.91,SE,146,0.0,0.0,80,0.00,,,0.00,0,Wunderground v.1.15,2013-04-11 06:20:00,
2013-04-11 00:30:00,65.9,59.6,25.91,SE,146,0.0,0.0,80,0.00,,,0.00,0,Wunderground v.1.15,2013-04-11 06:30:00,
2013-04-11 00:35:00,65.9,59.2,25.91,ENE,75,0.0,0.0,79,0.00,,,0.00,0,Wunderground v.1.15,2013-04-11 06:35:00,
2013-04-11 00:40:00,66.2,59.5,25.91,SE,136,1.0,1.0,79,0.00,,,0.00,0,Wunderground v.1.15,2013-04-11 06:40:00,
2013-04-11 00:45:00,66.3,59.2,25.91,East,98,1.0,2.0,78,0.00,,,0.00,0,Wunderground v.1.15,2013-04-11 06:45:00,
2013-04-11 00:55:00,66.7,58.9,25.90,East,96,1.0,2.0,76,0.00,,,0.00,0,Wunderground v.1.15,2013-04-11 06:55:00,
2013-04-11 01:05:00,67.2,59.0,25.90,ENE,67,1.0,2.0,75,0.00,,,0.00,0,Wunderground v.1.15,2013-04-11 07:05:00,
2013-04-11 01:10:00,67.2,59.0,25.90,ENE,67,1.0,1.0,75,0.00,,,0.00,0,Wunderground v.1.15,2013-04-11 07:10:00,
2013-04-11 01:15:00,67.2,59.0,25.90,East,99,1.0,1.0,75,0.00,,,0.00,0,Wunderground v.1.15,2013-04-11 07:15:00,
2013-04-11 01:20:00,67.2,59.0,25.90,SE,144,2.0,4.0,75,0.00,,,0.00,0,Wunderground v.1.15,2013-04-11 07:20:00,
2013-04-11 01:25:00,67.3,59.1,25.90,East,86,2.0,4.0,75,0.00,,,0.00,0,Wunderground v.1.15,2013-04-11 07:25:00,
2013-04-11 01:35:00,67.2,59.4,25.90,East,95,2.0,2.0,76,0.00,,,0.00,0,Wunderground v.1.15,2013-04-11 07:35:00,
2013-04-11 01:40:00,67.0,59.2,25.89,ENE,76,2.0,2.0,76,0.00,,,0.00,0,Wunderground v.1.15,2013-04-11 07:40:00,
2013-04-11 01:45:00,67.0,59.5,25.89,SSE,151,3.0,3.0,77,0.00,,,0.00,0,Wunderground v.1.15,2013-04-11 07:45:00,
2013-04-11 01:50:00,66.8,59.4,25.89,SSE,148,4.0,4.0,77,0.00,,,0.00,0,Wunderground v.1.15,2013-04-11 07:50:00,
2013-04-11 02:00:00,66.8,59.0,25.89,SE,138,4.0,5.0,76,0.00,,,0.00,0,Wunderground v.1.15,2013-04-11 08:00:00,
2013-04-11 02:05:00,66.8,59.0,25.89,SSE,154,4.0,5.0,76,0.00,,,0.00,0,Wunderground v.1.15,2013-04-11 08:05:00,
2013-04-11 02:15:00,66.3,58.5,25.88,ENE,74,1.0,3.0,76,0.00,,,0.00,0,Wunderground v.1.15,2013-04-11 08:15:00,
2013-04-11 02:20:00,66.2,58.4,25.88,ENE,74,1.0,1.0,76,0.00,,,0.00,0,Wunderground v.1.15,2013-04-11 08:20:00,
2013-04-11 02:25:00,66.0,58.2,25.88,ENE,74,1.0,1.0,76,0.00,,,0.00,0,Wunderground v.1.15,2013-04-11 08:25:00,
2013-04-11 02:30:00,65.9,58.1,25.88,ENE,74,1.0,1.0,76,0.00,,,0.00,0,Wunderground v.1.15,2013-04-11 08:30:00,
2013-04-11 02:35:00,65.7,57.9,25.88,ENE,74,1.0,1.0,76,0.00,,,0.00,0,Wunderground v.1.15,2013-04-11 08:35:00,
2013-04-11 02:40:00,65.7,58.3,25.88,ENE,74,1.0,1.0,77,0.00,,,0.00,0,Wunderground v.1.15,2013-04-11 08:40:00,
2013-04-11 02:45:00,65.7,58.3,25.88,East,84,1.0,1.0,77,0.00,,,0.00,0,Wunderground v.1.15,2013-04-11 08:45:00,
2013-04-11 02:55:00,66.0,57.8,25.88,East,94,2.0,4.0,75,0.00,,,0.00,0,Wunderground v.1.15,2013-04-11 08:55:00,
2013-04-11 03:05:00,66.3,57.8,25.88,SSE,152,1.0,1.0,74,0.00,,,0.00,0,Wunderground v.1.15,2013-04-11 09:05:00,
2013-04-11 03:15:00,66.5,58.3,25.87,East,99,1.0,2.0,75,0.00,,,0.00,0,Wunderground v.1.15,2013-04-11 09:15:00,
2013-04-11 03:25:00,66.7,58.1,25.87,SE,141,1.0,4.0,74,0.00,,,0.00,0,Wunderground v.1.15,2013-04-11 09:25:00,
2013-04-11 03:30:00,66.7,58.1,25.87,SE,132,2.0,4.0,74,0.00,,,0.00,0,Wunderground v.1.15,2013-04-11 09:30:00,
2013-04-11 03:40:00,66.3,57.8,25.87,SSE,148,2.0,3.0,74,0.00,,,0.00,0,Wunderground v.1.15,2013-04-11 09:40:00,
2013-04-11 03:50:00,66.0,57.5,25.87,SE,146,2.0,5.0,74,0.00,,,0.00,0,Wunderground v.1.15,2013-04-11 09:50:00,
2013-04-11 04:00:00,66.2,58.0,25.87,ESE,123,4.0,6.0,75,0.00,,,0.00,0,Wunderground v.1.15,2013-04-11 10:00:00,
2013-04-11 04:05:00,66.2,58.0,25.87,SSE,152,3.0,6.0,75,0.00,,,0.00,0,Wunderground v.1.15,2013-04-11 10:05:00,
2013-04-11 04:15:00,66.2,58.4,25.87,SSE,155,4.0,5.0,76,0.00,,,0.00,0,Wunderground v.1.15,2013-04-11 10:15:00,
2013-04-11 04:25:00,66.2,58.4,25.88,SSE,156,5.0,5.0,76,0.00,,,0.00,0,Wunderground v.1.15,2013-04-11 10:25:00,
2013-04-11 04:30:00,66.2,58.4,25.88,SSE,147,5.0,6.0,76,0.00,,,0.00,0,Wunderground v.1.15,2013-04-11 10:30:00,
2013-04-11 04:40:00,66.0,58.2,25.88,SE,144,4.0,5.0,76,0.00,,,0.00,0,Wunderground v.1.15,2013-04-11 10:40:00,
2013-04-11 04:50:00,65.9,58.1,25.88,ESE,102,2.0,4.0,76,0.00,,,0.00,0,Wunderground v.1.15,2013-04-11 10:50:00,
2013-04-11 04:55:00,65.7,58.3,25.88,ESE,106,2.0,4.0,77,0.00,,,0.00,0,Wunderground v.1.15,2013-04-11 10:55:00,
2013-04-11 05:05:00,65.4,58.4,25.88,NE,51,1.0,1.0,78,0.00,,,0.00,0,Wunderground v.1.15,2013-04-11 11:05:00,
2013-04-11 05:10:00,65.4,58.4,25.88,ENE,71,1.0,1.0,78,0.00,,,0.00,0,Wunderground v.1.15,2013-04-11 11:10:00,
2013-04-11 05:20:00,65.2,58.2,25.89,ENE,71,0.0,2.0,78,0.00,,,0.00,0,Wunderground v.1.15,2013-04-11 11:20:00,
2013-04-11 05:30:00,65.2,58.2,25.89,SSE,148,2.0,6.0,78,0.00,,,0.00,0,Wunderground v.1.15,2013-04-11 11:30:00,
2013-04-11 05:40:00,65.2,58.2,25.90,SSE,150,1.0,1.0,78,0.00,,,0.00,11,Wunderground v.1.15,2013-04-11 11:40:00,
2013-04-11 05:50:00,65.1,58.1,25.90,SSE,150,0.0,0.0,78,0.00,,,0.00,21,Wunderground v.1.15,2013-04-11 11:50:00,
2013-04-11 06:00:00,65.2,57.4,25.90,East,79,1.0,1.0,76,0.00,,,0.00,53,Wunderground v.1.15,2013-04-11 12:00:00,
2013-04-11 06:10:00,66.3,56.6,25.91,East,82,2.0,2.0,71,0.00,,,0.00,54,Wunderground v.1.15,2013-04-11 12:10:00,
2013-04-11 06:15:00,67.0,57.3,25.91,East,87,1.0,2.0,71,0.00,,,0.00,134,Wunderground v.1.15,2013-04-11 12:15:00,
2013-04-11 06:25:00,68.5,57.5,25.91,SSE,150,1.0,2.0,68,0.00,,,0.00,174,Wunderground v.1.15,2013-04-11 12:25:00,
2013-04-11 06:30:00,69.2,57.8,25.92,SSE,157,2.0,2.0,67,0.00,,,0.00,190,Wunderground v.1.15,2013-04-11 12:30:00,
2013-04-11 06:40:00,70.2,57.9,25.92,ENE,69,1.0,1.0,65,0.00,,,0.00,223,Wunderground v.1.15,2013-04-11 12:40:00,
2013-04-11 06:50:00,71.0,58.6,25.92,ESE,103,2.0,2.0,65,0.00,,,0.00,262,Wunderground v.1.15,2013-04-11 12:50:00,
2013-04-11 06:55:00,71.2,58.8,25.92,ENE,68,2.0,2.0,65,0.00,,,0.00,257,Wunderground v.1.15,2013-04-11 12:55:00,
2013-04-11 07:05:00,71.5,59.1,25.93,East,96,2.0,2.0,65,0.00,,,0.00,330,Wunderground v.1.15,2013-04-11 13:05:00,
2013-04-11 07:10:00,71.5,59.1,25.93,ENE,73,2.0,3.0,65,0.00,,,0.00,348,Wunderground v.1.15,2013-04-11 13:10:00,
2013-04-11 07:15:00,71.5,58.2,25.93,ESE,123,3.0,3.0,63,0.00,,,0.00,367,Wunderground v.1.15,2013-04-11 13:15:00,
2013-04-11 07:25:00,73.1,57.9,25.93,ESE,104,2.0,4.0,59,0.00,,,0.00,401,Wunderground v.1.15,2013-04-11 13:25:00,
2013-04-11 07:35:00,73.8,58.6,25.94,ESE,108,2.0,5.0,59,0.00,,,0.00,446,Wunderground v.1.15,2013-04-11 13:35:00,
2013-04-11 07:40:00,74.3,58.1,25.94,SSE,160,2.0,2.0,57,0.00,,,0.00,462,Wunderground v.1.15,2013-04-11 13:40:00,
2013-04-11 07:50:00,74.8,58.5,25.94,SE,136,2.0,2.0,57,0.00,,,0.00,497,Wunderground v.1.15,2013-04-11 13:50:00,
2013-04-11 07:55:00,75.7,58.4,25.94,SSE,154,2.0,5.0,55,0.00,,,0.00,519,Wunderground v.1.15,2013-04-11 13:55:00,
2013-04-11 08:00:00,75.9,59.1,25.94,SSE,148,2.0,2.0,56,0.00,,,0.00,531,Wunderground v.1.15,2013-04-11 14:00:00,
2013-04-11 08:10:00,76.4,59.0,25.94,ESE,105,3.0,3.0,55,0.00,,,0.00,571,Wunderground v.1.15,2013-04-11 14:10:00,
2013-04-11 08:15:00,76.7,58.8,25.94,ENE,67,2.0,3.0,54,0.00,,,0.00,592,Wunderground v.1.15,2013-04-11 14:15:00,
2013-04-11 08:25:00,77.6,59.1,25.94,SE,137,1.0,1.0,53,0.00,,,0.00,622,Wunderground v.1.15,2013-04-11 14:25:00,
2013-04-11 08:35:00,78.2,59.1,25.94,ENE,66,2.0,2.0,52,0.00,,,0.00,659,Wunderground v.1.15,2013-04-11 14:35:00,
2013-04-11 08:45:00,78.4,59.3,25.94,East,80,3.0,3.0,52,0.00,,,0.00,691,Wunderground v.1.15,2013-04-11 14:45:00,
2013-04-11 08:55:00,78.4,59.3,25.94,NW,323,3.0,4.0,52,0.00,,,0.00,712,Wunderground v.1.15,2013-04-11 14:55:00,
2013-04-11 09:10:00,79.5,59.2,25.94,ESE,116,2.0,2.0,50,0.00,,,0.00,761,Wunderground v.1.15,2013-04-11 15:10:00,
2013-04-11 09:15:00,79.5,59.2,25.94,NE,53,2.0,2.0,50,0.00,,,0.00,777,Wunderground v.1.15,2013-04-11 15:15:00,
2013-04-11 09:25:00,80.0,59.7,25.93,NNW,329,3.0,3.0,50,0.00,,,0.00,803,Wunderground v.1.15,2013-04-11 15:25:00,
2013-04-11 09:30:00,80.4,59.5,25.93,WNW,300,3.0,5.0,49,0.00,,,0.00,809,Wunderground v.1.15,2013-04-11 15:30:00,
2013-04-11 09:40:00,81.1,59.6,25.93,ESE,105,3.0,7.0,48,0.00,,,0.00,853,Wunderground v.1.15,2013-04-11 15:40:00,
2013-04-11 09:50:00,81.5,59.3,25.93,NNE,20,3.0,6.0,47,0.00,,,0.00,868,Wunderground v.1.15,2013-04-11 15:50:00,
2013-04-11 10:00:00,81.0,60.0,25.93,North,360,4.0,4.0,49,0.00,,,0.00,895,Wunderground v.1.15,2013-04-11 16:00:00,
2013-04-11 10:10:00,81.5,59.9,25.92,WSW,249,3.0,3.0,48,0.00,,,0.00,868,Wunderground v.1.15,2013-04-11 16:10:00,
2013-04-11 10:15:00,81.5,59.9,25.92,WNW,295,3.0,3.0,48,0.00,,,0.00,900,Wunderground v.1.15,2013-04-11 16:15:00,
2013-04-11 10:25:00,82.1,59.9,25.92,North,5,3.0,5.0,47,0.00,,,0.00,944,Wunderground v.1.15,2013-04-11 16:25:00,
2013-04-11 10:35:00,82.3,60.1,25.92,WNW,282,4.0,7.0,47,0.00,,,0.00,951,Wunderground v.1.15,2013-04-11 16:35:00,
2013-04-11 10:40:00,82.7,59.8,25.91,WNW,290,4.0,6.0,46,0.00,,,0.00,1023,Wunderground v.1.15,2013-04-11 16:40:00,
2013-04-11 10:45:00,82.5,59.6,25.91,NNW,340,4.0,6.0,46,0.00,,,0.00,976,Wunderground v.1.15,2013-04-11 16:45:00,
2013-04-11 10:55:00,83.7,60.1,25.91,East,83,3.0,3.0,45,0.00,,,0.00,997,Wunderground v.1.15,2013-04-11 16:55:00,
2013-04-11 11:00:00,83.9,58.3,25.91,NE,42,3.0,5.0,42,0.00,,,0.00,837,Wunderground v.1.15,2013-04-11 17:00:00,
2013-04-11 11:10:00,84.4,58.8,25.90,NW,304,3.0,6.0,42,0.00,,,0.00,1144,Wunderground v.1.15,2013-04-11 17:10:00,
2013-04-11 11:20:00,84.0,59.1,25.90,NW,319,3.0,3.0,43,0.00,,,0.00,1167,Wunderground v.1.15,2013-04-11 17:20:00,
2013-04-11 11:30:00,83.5,59.9,25.90,NW,320,4.0,6.0,45,0.00,,,0.00,323,Wunderground v.1.15,2013-04-11 17:30:00,
2013-04-11 11:35:00,82.3,62.4,25.90,West,275,5.0,6.0,51,0.00,,,0.00,338,Wunderground v.1.15,2013-04-11 17:35:00,
2013-04-11 11:45:00,81.7,62.9,25.90,ENE,57,3.0,4.0,53,0.00,,,0.00,315,Wunderground v.1.15,2013-04-11 17:45:00,
2013-04-11 11:55:00,81.0,63.3,25.90,NW,304,3.0,9.0,55,0.00,,,0.00,174,Wunderground v.1.15,2013-04-11 17:55:00,
2013-04-11 12:05:00,80.0,62.4,25.89,East,81,4.0,5.0,55,0.00,,,0.00,188,Wunderground v.1.15,2013-04-11 18:05:00,
2013-04-11 12:15:00,79.8,62.2,25.89,North,10,4.0,4.0,55,0.00,,,0.00,995,Wunderground v.1.15,2013-04-11 18:15:00,
2013-04-11 12:25:00,79.8,62.7,25.89,North,355,3.0,4.0,56,0.00,,,0.00,316,Wunderground v.1.15,2013-04-11 18:25:00,
2013-04-11 12:35:00,80.2,63.1,25.88,East,82,4.0,4.0,56,0.00,,,0.00,935,Wunderground v.1.15,2013-04-11 18:35:00,
2013-04-11 12:45:00,81.0,63.8,25.88,NW,321,5.0,9.0,56,0.00,,,0.00,921,Wunderground v.1.15,2013-04-11 18:45:00,
2013-04-11 12:55:00,81.0,63.8,25.88,NE,42,5.0,7.0,56,0.00,,,0.00,911,Wunderground v.1.15,2013-04-11 18:55:00,
2013-04-11 13:05:00,79.7,63.6,25.88,East,98,5.0,6.0,58,0.00,,,0.00,889,Wunderground v.1.15,2013-04-11 19:05:00,
2013-04-11 13:15:00,80.4,63.8,25.87,NNW,338,5.0,7.0,57,0.00,,,0.00,879,Wunderground v.1.15,2013-04-11 19:15:00,
2013-04-11 13:20:00,79.3,63.7,25.87,NNE,31,5.0,5.0,59,0.00,,,0.00,875,Wunderground v.1.15,2013-04-11 19:20:00,
2013-04-11 13:30:00,78.0,63.9,25.87,South,178,6.0,7.0,62,0.00,,,0.00,786,Wunderground v.1.15,2013-04-11 19:30:00,
2013-04-11 13:40:00,76.4,64.2,25.87,NW,323,6.0,9.0,66,0.00,,,0.00,775,Wunderground v.1.15,2013-04-11 19:40:00,
2013-04-11 13:50:00,76.6,63.5,25.86,NNE,15,7.0,7.0,64,0.00,,,0.00,777,Wunderground v.1.15,2013-04-11 19:50:00,
2013-04-11 13:55:00,76.6,64.0,25.86,NE,42,6.0,7.0,65,0.00,,,0.00,761,Wunderground v.1.15,2013-04-11 19:55:00,
2013-04-11 14:05:00,76.4,63.8,25.86,NE,54,5.0,6.0,65,0.00,,,0.00,137,Wunderground v.1.15,2013-04-11 20:05:00,
2013-04-11 14:15:00,75.2,63.5,25.85,North,360,5.0,7.0,67,0.00,,,0.00,710,Wunderground v.1.15,2013-04-11 20:15:00,
2013-04-11 14:20:00,75.7,63.5,25.85,SSW,194,5.0,5.0,66,0.00,,,0.00,229,Wunderground v.1.15,2013-04-11 20:20:00,
2013-04-11 14:30:00,76.0,63.8,25.85,NNW,328,5.0,7.0,66,0.00,,,0.00,179,Wunderground v.1.15,2013-04-11 20:30:00,
2013-04-11 14:40:00,74.3,63.9,25.85,ENE,59,5.0,5.0,70,0.00,,,0.00,628,Wunderground v.1.15,2013-04-11 20:40:00,
2013-04-11 14:45:00,73.6,64.0,25.85,NNE,32,5.0,5.0,72,0.00,,,0.00,100,Wunderground v.1.15,2013-04-11 20:45:00,
2013-04-11 14:55:00,72.4,63.6,25.85,North,360,4.0,5.0,74,0.00,,,0.00,70,Wunderground v.1.15,2013-04-11 20:55:00,
2013-04-11 15:05:00,72.2,63.1,25.85,NNE,19,4.0,7.0,73,0.00,,,0.00,51,Wunderground v.1.15,2013-04-11 21:05:00,
2013-04-11 15:15:00,72.4,63.3,25.85,NNE,24,5.0,9.0,73,0.00,,,0.00,67,Wunderground v.1.15,2013-04-11 21:15:00,
2013-04-11 15:25:00,72.4,62.9,25.85,WNW,298,5.0,5.0,72,0.00,,,0.00,86,Wunderground v.1.15,2013-04-11 21:25:00,
2013-04-11 15:30:00,72.2,62.7,25.85,NE,46,4.0,4.0,72,0.00,,,0.00,81,Wunderground v.1.15,2013-04-11 21:30:00,
2013-04-11 15:40:00,72.7,63.1,25.85,NNW,334,3.0,3.0,72,0.00,,,0.00,72,Wunderground v.1.15,2013-04-11 21:40:00,
2013-04-11 15:50:00,72.6,63.4,25.85,NW,325,3.0,3.0,73,0.00,,,0.00,51,Wunderground v.1.15,2013-04-11 21:50:00,
2013-04-11 16:00:00,72.7,63.5,25.85,NNW,344,3.0,3.0,73,0.00,,,0.00,51,Wunderground v.1.15,2013-04-11 22:00:00,
2013-04-11 16:10:00,72.6,63.4,25.85,NW,305,3.0,8.0,73,0.00,,,0.00,40,Wunderground v.1.15,2013-04-11 22:10:00,
2013-04-11 16:15:00,72.4,63.3,25.86,North,360,4.0,8.0,73,0.00,,,0.00,30,Wunderground v.1.15,2013-04-11 22:15:00,
2013-04-11 16:20:00,72.2,63.4,25.86,North,355,3.0,5.0,74,0.00,,,0.00,33,Wunderground v.1.15,2013-04-11 22:20:00,
2013-04-11 16:30:00,72.0,63.3,25.85,NE,52,3.0,4.0,74,0.00,,,0.00,30,Wunderground v.1.15,2013-04-11 22:30:00,
2013-04-11 16:35:00,72.2,63.1,25.85,South,179,2.0,4.0,73,0.00,,,0.00,40,Wunderground v.1.15,2013-04-11 22:35:00,
2013-04-11 16:45:00,72.6,63.4,25.85,NW,320,2.0,3.0,73,0.00,,,0.00,44,Wunderground v.1.15,2013-04-11 22:45:00,
2013-04-11 16:55:00,72.7,63.5,25.86,East,82,3.0,3.0,73,0.00,,,0.00,37,Wunderground v.1.15,2013-04-11 22:55:00,
2013-04-11 17:05:00,72.9,63.3,25.86,East,79,1.0,2.0,72,0.00,,,0.00,26,Wunderground v.1.15,2013-04-11 23:05:00,
2013-04-11 17:15:00,73.1,63.5,25.87,West,259,1.0,2.0,72,0.00,,,0.00,26,Wunderground v.1.15,2013-04-11 23:15:00,
2013-04-11 17:25:00,72.7,63.1,25.87,WNW,282,2.0,2.0,72,0.00,,,0.00,12,Wunderground v.1.15,2013-04-11 23:25:00,
2013-04-11 17:35:00,72.4,63.6,25.87,NE,53,2.0,2.0,74,0.00,,,0.00,9,Wunderground v.1.15,2013-04-11 23:35:00,
2013-04-11 17:45:00,72.2,63.4,25.87,NE,53,0.0,1.0,74,0.00,,,0.00,0,Wunderground v.1.15,2013-04-11 23:45:00,
2013-04-11 17:55:00,72.4,63.3,25.88,NE,53,0.0,0.0,73,0.00,,,0.00,0,Wunderground v.1.15,2013-04-11 23:55:00,
2013-04-11 18:00:00,72.6,63.4,25.88,NE,53,0.0,0.0,73,0.00,,,0.00,0,Wunderground v.1.15,2013-04-12 00:00:00,
2013-04-11 18:05:00,72.6,63.4,25.89,NE,53,0.0,0.0,73,0.00,,,0.00,0,Wunderground v.1.15,2013-04-12 00:05:00,
2013-04-11 18:15:00,72.2,63.4,25.89,ENE,58,1.0,3.0,74,0.00,,,0.00,0,Wunderground v.1.15,2013-04-12 00:15:00,
2013-04-11 18:20:00,71.9,63.9,25.89,NNW,332,2.0,3.0,76,0.00,,,0.00,0,Wunderground v.1.15,2013-04-12 00:20:00,
2013-04-11 18:30:00,71.2,63.6,25.89,NNE,33,2.0,2.0,77,0.00,,,0.00,0,Wunderground v.1.15,2013-04-12 00:30:00,
2013-04-11 18:40:00,70.8,64.0,25.90,ENE,76,2.0,2.0,79,0.00,,,0.00,0,Wunderground v.1.15,2013-04-12 00:40:00,
2013-04-11 18:50:00,70.7,64.2,25.90,East,86,2.0,2.0,80,0.00,,,0.00,0,Wunderground v.1.15,2013-04-12 00:50:00,
2013-04-11 18:55:00,70.5,64.0,25.90,NNW,348,2.0,2.0,80,0.00,,,0.00,0,Wunderground v.1.15,2013-04-12 00:55:00,
2013-04-11 19:00:00,70.5,64.4,25.90,NNE,28,1.0,3.0,81,0.00,,,0.00,0,Wunderground v.1.15,2013-04-12 01:00:00,
2013-04-11 19:10:00,70.2,64.1,25.90,East,90,2.0,2.0,81,0.00,,,0.00,0,Wunderground v.1.15,2013-04-12 01:10:00,
2013-04-11 19:20:00,70.2,64.1,25.91,NE,44,1.0,1.0,81,0.00,,,0.00,0,Wunderground v.1.15,2013-04-12 01:20:00,
2013-04-11 19:25:00,70.2,63.7,25.91,NE,56,1.0,1.0,80,0.00,,,0.00,0,Wunderground v.1.15,2013-04-12 01:25:00,
2013-04-11 19:35:00,70.3,63.5,25.91,East,90,1.0,1.0,79,0.00,,,0.00,0,Wunderground v.1.15,2013-04-12 01:35:00,
2013-04-11 19:45:00,70.5,63.7,25.91,East,90,0.0,1.0,79,0.00,,,0.00,0,Wunderground v.1.15,2013-04-12 01:45:00,
2013-04-11 19:50:00,70.5,63.7,25.91,East,90,0.0,0.0,79,0.00,,,0.00,0,Wunderground v.1.15,2013-04-12 01:50:00,
2013-04-11 20:00:00,70.5,63.7,25.92,East,90,0.0,1.0,79,0.00,,,0.00,0,Wunderground v.1.15,2013-04-12 02:00:00,
2013-04-11 20:05:00,70.3,63.8,25.92,East,90,0.0,1.0,80,0.00,,,0.00,0,Wunderground v.1.15,2013-04-12 02:05:00,
2013-04-11 20:10:00,70.3,63.8,25.92,East,90,0.0,0.0,80,0.00,,,0.00,0,Wunderground v.1.15,2013-04-12 02:10:00,
2013-04-11 20:20:00,70.2,63.7,25.92,East,90,0.0,1.0,80,0.00,,,0.00,0,Wunderground v.1.15,2013-04-12 02:20:00,
2013-04-11 20:25:00,70.2,63.4,25.92,ENE,64,1.0,1.0,79,0.00,,,0.00,0,Wunderground v.1.15,2013-04-12 02:25:00,
2013-04-11 20:35:00,70.0,63.2,25.92,ENE,65,0.0,1.0,79,0.00,,,0.00,0,Wunderground v.1.15,2013-04-12 02:35:00,
2013-04-11 20:45:00,70.2,63.4,25.93,ENE,65,0.0,0.0,79,0.00,,,0.00,0,Wunderground v.1.15,2013-04-12 02:45:00,
2013-04-11 20:55:00,70.2,63.0,25.93,ENE,65,0.0,0.0,78,0.00,,,0.00,0,Wunderground v.1.15,2013-04-12 02:55:00,
2013-04-11 21:00:00,70.3,63.1,25.93,ENE,65,0.0,2.0,78,0.00,,,0.00,0,Wunderground v.1.15,2013-04-12 03:00:00,
2013-04-11 21:05:00,70.3,62.7,25.93,ENE,68,1.0,2.0,77,0.00,,,0.00,0,Wunderground v.1.15,2013-04-12 03:05:00,
2013-04-11 21:15:00,70.3,62.7,25.93,ENE,68,0.0,1.0,77,0.00,,,0.00,0,Wunderground v.1.15,2013-04-12 03:15:00,
2013-04-11 21:25:00,70.3,62.4,25.93,ENE,68,0.0,1.0,76,0.00,,,0.00,0,Wunderground v.1.15,2013-04-12 03:25:00,
2013-04-11 21:35:00,70.3,62.4,25.93,ENE,68,0.0,0.0,76,0.00,,,0.00,0,Wunderground v.1.15,2013-04-12 03:35:00,
2013-04-11 21:45:00,70.2,62.6,25.93,ENE,68,0.0,1.0,77,0.00,,,0.00,0,Wunderground v.1.15,2013-04-12 03:45:00,
2013-04-11 21:50:00,70.0,62.5,25.93,ENE,68,0.0,0.0,77,0.00,,,0.00,0,Wunderground v.1.15,2013-04-12 03:50:00,
2013-04-11 22:00:00,69.5,62.3,25.93,ENE,68,0.0,0.0,78,0.00,,,0.00,0,Wunderground v.1.15,2013-04-12 04:00:00,
2013-04-11 22:05:00,69.3,62.1,25.93,ENE,68,0.0,0.0,78,0.00,,,0.00,0,Wunderground v.1.15,2013-04-12 04:05:00,
2013-04-11 22:10:00,69.2,62.4,25.93,ENE,68,0.0,0.0,79,0.00,,,0.00,0,Wunderground v.1.15,2013-04-12 04:10:00,
2013-04-11 22:15:00,69.0,62.2,25.93,ENE,68,0.0,0.0,79,0.00,,,0.00,0,Wunderground v.1.15,2013-04-12 04:15:00,
2013-04-11 22:25:00,68.8,62.0,25.93,ENE,68,0.0,0.0,79,0.00,,,0.00,0,Wunderground v.1.15,2013-04-12 04:25:00,
2013-04-11 22:35:00,68.7,61.9,25.92,ENE,68,0.0,1.0,79,0.00,,,0.00,0,Wunderground v.1.15,2013-04-12 04:35:00,
2013-04-11 22:45:00,68.5,61.4,25.92,ENE,69,1.0,1.0,78,0.00,,,0.00,0,Wunderground v.1.15,2013-04-12 04:45:00,
2013-04-11 22:55:00,68.3,61.2,25.92,ENE,68,0.0,1.0,78,0.00,,,0.00,0,Wunderground v.1.15,2013-04-12 04:55:00,
2013-04-11 23:00:00,68.2,61.1,25.92,ENE,68,0.0,0.0,78,0.00,,,0.00,0,Wunderground v.1.15,2013-04-12 05:00:00,
2013-04-11 23:10:00,68.3,61.2,25.92,ENE,76,1.0,1.0,78,0.00,,,0.00,0,Wunderground v.1.15,2013-04-12 05:10:00,
2013-04-11 23:20:00,68.3,61.2,25.92,ENE,76,1.0,1.0,78,0.00,,,0.00,0,Wunderground v.1.15,2013-04-12 05:20:00,
2013-04-11 23:25:00,68.3,61.5,25.92,ENE,76,1.0,1.0,79,0.00,,,0.00,0,Wunderground v.1.15,2013-04-12 05:25:00,
2013-04-11 23:35:00,68.3,61.9,25.92,ENE,76,1.0,1.0,80,0.00,,,0.00,0,Wunderground v.1.15,2013-04-12 05:35:00,
2013-04-11 23:45:00,68.3,61.9,25.91,SSE,153,2.0,2.0,80,0.00,,,0.00,0,Wunderground v.1.15,2013-04-12 05:45:00,
2013-04-11 23:50:00,68.3,61.9,25.91,SSE,155,2.0,2.0,80,0.00,,,0.00,0,Wunderground v.1.15,2013-04-12 05:50:00,